IRIDIUM 165 (43572 NORAD) Tracking and Keplerian Element Data

This shows tracking and keplerian element data for the satellite.

Feedback or suggestion? Click here.




ElementValue
Catalog43572
NameIRIDIUM 165
Epoch Orbit420
Epoch Day235.36090407
Epoch Year2018
RAAN169.7723
Inclination86.4024
Eccentricity0.0002172
Argument of Perigee91.8953
Mean Anonmoly268.2492
Mean Motion14.34217442
Decay Rate1E-07
L11 43572U 18061D 18235.36090407 .00000010 00000-0 -36130-5 0 9995
L22 43572 86.4024 169.7723 0002172 91.8953 268.2492 14.34217442 4200

Live tracking and technical data element details for IRIDIUM 165 (NORAD 43572). IRIDIUM 165 can be tracked NOW for your location showing map with azimuth and elevation plus other details from your city location.

Track the satellite on the map from your city or location and see movement details for azimuth, elevation, latitude, longitude, range, height, and movement on the map or in text.







IsCatalogInMostPopularTable: catalog: 43572, numindb: 45
Update: records affected: 1



GetName: 43572 IRIDIUM 165

Hit Count: updated at: Fri, 16 Nov 2018 03:56:11 GMT